| time (UTC) | temp C | wind direction | speed KPH | gust KPH | rain 1hr cm | rain 24hr cm | rain mn cm | humidity % | barometer mb |
| 20260506001747 | 26 | 0.0 | 0.0 | 0.00 | 0.00 | 0.00 | 53 | 1012.5 | |
| 20260505235747 | 26 | 0.0 | 0.0 | 0.00 | 0.00 | 0.00 | 52 | 1012.5 | |
| 20260505233747 | 26 | 0.0 | 0.0 | 0.00 | 0.00 | 0.00 | 51 | 1012.6 | |
| 20260505231747 | 25 | 0.0 | 0.0 | 0.00 | 0.00 | 0.00 | 51 | 1012.7 | |
| 20260505225747 | 25 | 0.0 | 0.0 | 0.00 | 0.00 | 0.00 | 51 | 1012.4 | |
| 20260505223748 | 25 | 0.0 | 0.0 | 0.00 | 0.00 | 0.00 | 51 | 1012.2 | |
| 20260505221748 | 25 | 0.0 | 0.0 | 0.00 | 0.00 | 0.00 | 52 | 1012.2 | |
| 20260505215748 | 25 | 0.0 | 0.0 | 0.00 | 0.00 | 0.00 | 48 | 1011.7 | |
| 20260505213748 | 25 | 0.0 | 0.0 | 0.00 | 0.00 | 0.00 | 46 | 1011.7 | |
| 20260505211747 | 24 | 0.0 | 0.0 | 0.00 | 0.00 | 0.00 | 45 | 1011.0 | |
| 20260505205747 | 24 | 0.0 | 0.0 | 0.00 | 0.00 | 0.00 | 42 | 1011.2 | |
| 20260505203748 | 25 | 0.0 | 0.0 | 0.00 | 0.00 | 0.00 | 35 | 1010.8 | |
| 20260505201748 | 25 | 0.0 | 0.0 | 0.00 | 0.00 | 0.00 | 34 | 1010.8 | |
| 20260505195748 | 25 | 0.0 | 0.0 | 0.00 | 0.00 | 0.00 | 34 | 1010.6 | |
| 20260505193748 | 25 | 0.0 | 0.0 | 0.00 | 0.00 | 0.00 | 34 | 1010.6 | |
| 20260505191747 | 25 | 0.0 | 0.0 | 0.00 | 0.00 | 0.00 | 34 | 1010.6 | |
| 20260505185747 | 26 | 0.0 | 0.0 | 0.00 | 0.00 | 0.00 | 34 | 1010.6 | |
| 20260505183747 | 26 | 0.0 | 0.0 | 0.00 | 0.00 | 0.00 | 35 | 1010.8 | |
| 20260505181747 | 26 | 0.0 | 0.0 | 0.00 | 0.00 | 0.00 | 37 | 1010.6 | |
| 20260505175747 | 26 | 0.0 | 0.0 | 0.00 | 0.00 | 0.00 | 39 | 1011.1 | |
| 20260505173748 | 27 | 0.0 | 0.0 | 0.00 | 0.00 | 0.00 | 47 | 1010.9 | |
| 20260505171748 | 27 | 0.0 | 0.0 | 0.00 | 0.00 | 0.00 | 41 | 1011.1 | |
| 20260505165747 | 28 | 0.0 | 0.0 | 0.00 | 0.00 | 0.00 | 47 | 1011.5 | |
| 20260505163747 | 28 | 0.0 | 0.0 | 0.00 | 0.00 | 0.00 | 47 | 1011.5 | |
| 20260505161747 | 28 | 0.0 | 0.0 | 0.00 | 0.00 | 0.00 | 47 | 1011.6 | |
| 20260505151748 | 27 | 0.0 | 0.0 | 0.00 | 0.00 | 0.00 | 61 | 1012.5 | |
| 20260505123748 | 30 | 0.0 | 0.0 | 0.00 | 0.00 | 0.00 | 45 | 1013.1 | |
| 20260505121748 | 30 | 0.0 | 0.0 | 0.00 | 0.00 | 0.00 | 45 | 1013.0 | |
| 20260505115748 | 29 | 0.0 | 0.0 | 0.00 | 0.00 | 0.00 | 46 | 1013.1 | |
| 20260505113747 | 29 | 0.0 | 0.0 | 0.00 | 0.00 | 0.00 | 46 | 1012.4 | |
| 20260505111747 | 27 | 0.0 | 0.0 | 0.00 | 0.00 | 0.00 | 51 | 1011.9 | |
| 20260505101747 | 26 | 0.0 | 0.0 | 0.00 | 0.00 | 0.00 | 48 | 1012.3 | |
| 20260505095747 | 26 | 0.0 | 0.0 | 0.00 | 0.00 | 0.00 | 47 | 1012.3 | |
| 20260505093747 | 27 | 0.0 | 0.0 | 0.00 | 0.00 | 0.00 | 39 | 1012.2 | |
| 20260505091747 | 27 | 0.0 | 0.0 | 0.00 | 0.00 | 0.00 | 40 | 1012.1 | |
| 20260505085747 | 28 | 0.0 | 0.0 | 0.00 | 0.00 | 0.00 | 40 | 1011.8 | |
| 20260505083747 | 28 | 0.0 | 0.0 | 0.00 | 0.00 | 0.00 | 41 | 1011.6 | |
| 20260505081747 | 28 | 0.0 | 0.0 | 0.00 | 0.00 | 0.00 | 42 | 1011.6 | |
| 20260505075747 | 28 | 0.0 | 0.0 | 0.00 | 0.00 | 0.00 | 43 | 1011.7 | |
| 20260505073747 | 28 | 0.0 | 0.0 | 0.00 | 0.00 | 0.00 | 44 | 1011.8 | |
| 20260505071747 | 28 | 0.0 | 0.0 | 0.00 | 0.00 | 0.00 | 46 | 1011.8 | |
| 20260505065747 | 29 | 0.0 | 0.0 | 0.00 | 0.00 | 0.00 | 53 | 1012.2 | |
| 20260505063747 | 28 | 0.0 | 0.0 | 0.00 | 0.00 | 0.00 | 54 | 1012.5 | |
| 20260505061747 | 26 | 0.0 | 0.0 | 0.00 | 0.00 | 0.00 | 63 | 1012.4 | |
| 20260505055747 | 26 | 0.0 | 0.0 | 0.00 | 0.00 | 0.00 | 62 | 1012.5 | |
| 20260505053747 | 26 | 0.0 | 0.0 | 0.00 | 0.00 | 0.00 | 62 | 1012.7 | |
| 20260505051747 | 26 | 0.0 | 0.0 | 0.00 | 0.00 | 0.00 | 62 | 1012.7 | |
| 20260505041747 | 26 | 0.0 | 0.0 | 0.00 | 0.00 | 0.00 | 60 | 1013.4 | |
| 20260505035747 | 25 | 0.0 | 0.0 | 0.00 | 0.00 | 0.00 | 58 | 1013.5 | |
| 20260505033747 | 25 | 0.0 | 0.0 | 0.00 | 0.00 | 0.00 | 54 | 1013.5 | |
| 20260505031747 | 26 | 0.0 | 0.0 | 0.00 | 0.00 | 0.00 | 45 | 1013.5 | |
| 20260505025747 | 26 | 0.0 | 0.0 | 0.00 | 0.00 | 0.00 | 36 | 1013.6 | |
| 20260505023747 | 23 | 0.0 | 0.0 | 0.00 | 0.00 | 0.00 | 44 | 1014.0 | |
| 20260505021747 | 25 | 0.0 | 0.0 | 0.00 | 0.00 | 0.00 | 38 | 1013.9 | |
| 20260505015747 | 25 | 0.0 | 0.0 | 0.00 | 0.00 | 0.00 | 33 | 1014.1 | |
| 20260505013747 | 26 | 0.0 | 0.0 | 0.00 | 0.00 | 0.00 | 33 | 1014.4 | |
| 20260505011748 | 26 | 0.0 | 0.0 | 0.00 | 0.00 | 0.00 | 34 | 1014.3 | |
| 20260505005747 | 27 | 0.0 | 0.0 | 0.00 | 0.00 | 0.00 | 36 | 1014.0 | |
| 20260505003747 | 26 | 0.0 | 0.0 | 0.00 | 0.00 | 0.00 | 50 | 1014.1 |